[[{"header":{"parameterUnit":"m.s-1","parameterCategory":1,"la1":30.2991,"la2":30.254,"lo1":-89.0895,"lo2":-89.0444,"dy":0.0017,"dx":0.0017,"nx":28,"ny":28,"refTime":"2024-05-23T09:00:00:Z","depth":0,"parameterNumber":2,"parameterNumberName":"U-component_of_WINDS"},"data":[0,0,0,0,0,0,0,0,0,0,0,0,0,0,0,0,0,0,0,0,0,0,0,0,0,0,0,0,0,0,0,0,0,0,0,0,0,0,0,0,0,0,0,0,0,0,0,0,0,0,0,0,0,0,0,0,0,0,0.6162,0.6162,0,0.619,0.619,0.619,0.6171,0.617,0.6169,0.6168,0.6196,0.6197,0.6199,0,0,0,0,0,0,0,0,0,0,0,0,0,0.6088,0.609,0.6161,0.6162,0.6162,0.619,0.619,0.619,0.6171,0.617,0.6169,0.6168,0.6195,0.6197,0.6199,0,0,0,0,0,0,0,0,0,0,0,0,0,0.6119,0.609,0.6161,0.6156,0.6156,0.619,0.619,0.6191,0.6171,0.617,0.6169,0.6168,0.6195,0.6197,0.6199,0.624,0,0,0.6206,0.6207,0,0,0,0,0,0,0,0,0.6117,0.6121,0.6156,0.6156,0.6156,0.6176,0.6174,0.6207,0.6172,0.6165,0.6168,0.6167,0.619,0.6193,0.6201,0.6241,0.6242,0.6207,0.6208,0.6209,0.621,0,0,0,0,0,0,0,0.6115,0.612,0.6173,0.6157,0.6157,0.6151,0.6154,0.618,0.6185,0.6166,0.6165,0.6168,0.619,0.6199,0.6201,0.6243,0.6206,0.6208,0.621,0.6211,0.6316,0.6317,0,0,0,0,0,0,0.6114,0.6119,0.6172,0.6173,0.6133,0.6154,0.6157,0.6171,0.6184,0.6185,0.6169,0.6167,0.6195,0.6199,0.6202,0.625,0.6209,0.6211,0.6212,0.6314,0.6316,0.6318,0,0,0,0,0,0,0.6112,0.6119,0.6171,0.6146,0.6152,0.6156,0.6172,0.6172,0.6181,0.6187,0.6187,0.6178,0.6194,0.6199,0.623,0.625,0.6212,0.6214,0.6313,0.6315,0.6317,0.6345,0,0,0,0,0,0,0.611,0.6118,0.6134,0.6146,0.6153,0.6199,0.6173,0.6173,0.6185,0.6183,0.6195,0.6196,0.6194,0.6227,0.6233,0.6253,0.6216,0.6311,0.6314,0.6316,0.6343,0.6348,0.6353,0,0,0,0,0,0.6108,0.6141,0.6135,0.6142,0.6174,0.62,0.6204,0.6202,0.6187,0.6202,0.6206,0.6195,0.6247,0.623,0.6237,0.6258,0.631,0.6313,0.6316,0.634,0.6347,0.6353,0,0,0,0,0,0,0.6131,0.6143,0.6136,0.6175,0.6187,0.6197,0.6217,0.6209,0.6225,0.6222,0.6218,0.6221,0.6253,0.6259,0.624,0.6297,0.6276,0.6281,0.6292,0.6299,0.6304,0.6302,0.6218,0,0,0,0,0,0.6141,0.6162,0.6171,0.6204,0.621,0.6213,0.6224,0.6221,0.6233,0.6238,0.6244,0.6256,0.6274,0.6287,0.6305,0.6343,0.6345,0.6361,0.6366,0.637,0.6374,0.6394,0.6401,0.6328,0.6328,0.6328,0,0,0.6161,0.617,0.6184,0.6209,0.6218,0.6239,0.6217,0.6241,0.6256,0.6241,0.6271,0.6276,0.6289,0.6324,0.6339,0.6329,0.6394,0.6374,0.6377,0.6379,0.6398,0.6405,0.6411,0.633,0.633,0.6329,0,0,0.6208,0.6218,0.6246,0.6255,0.6269,0.627,0.6277,0.6288,0.6291,0.6321,0.631,0.6328,0.6361,0.637,0.6379,0.6429,0.6419,0.6435,0.6462,0.6481,0.6487,0.6492,0.6509,0.6515,0.6439,0.6439,0.6439,0,0.6232,0.6264,0.6261,0.6286,0.6297,0.6284,0.6312,0.6321,0.634,0.6347,0.6336,0.6376,0.6383,0.642,0.6432,0.644,0.6447,0.6433,0.6486,0.6491,0.6496,0.6512,0.6519,0.644,0.644,0.644,0.644,0,0.6291,0.6314,0.6335,0.6354,0.6367,0.6393,0.6393,0.6407,0.6402,0.6404,0.6434,0.6443,0.6462,0.647,0.6466,0.6506,0.6499,0.6487,0.6466,0.6505,0.652,0.6526,0.6443,0.6442,0.6442,0.6441,0,0,0.6355,0.6371,0.6379,0.6387,0.6401,0.6418,0.6443,0.6462,0.6473,0.6486,0.6506,0.6534,0.6523,0.6533,0.6529,0.6546,0.6584,0.6532,0.6532,0.6541,0.6628,0.6637,0.6644,0.6578,0.6579,0.658,0.6627,0,0.6403,0.6447,0.6445,0.6486,0.6506,0.6494,0.6516,0.6526,0.6529,0.6545,0.6548,0.6567,0.6551,0.6557,0.6573,0.6576,0.6602,0.6573,0.6596,0.6597,0.6593,0.6652,0.6662,0.6705,0.6633,0.6634,0.6634,0,0.6465,0.648,0.6523,0.6534,0.6542,0.6562,0.6578,0.6595,0.6606,0.6606,0.6617,0.6611,0.6635,0.6613,0.6646,0.6627,0.6636,0.6639,0.664,0.6642,0.6618,0.6655,0.6719,0.6725,0.6644,0.6643,0.6642,0,0.6506,0.6537,0.6567,0.6574,0.6587,0.6601,0.6607,0.6617,0.6628,0.6642,0.6649,0.6666,0.6675,0.6687,0.6685,0.667,0.6718,0.6697,0.6719,0.6719,0.6729,0.6729,0.6795,0.6736,0.6736,0.6736,0.6736,0,0.6559,0.6586,0.6585,0.6604,0.6633,0.663,0.6658,0.6663,0.6671,0.669,0.668,0.6697,0.6694,0.671,0.6709,0.6735,0.674,0.674,0.6739,0.6741,0.6741,0.6747,0.6743,0.6737,0.6737,0.6737,0.6736,0,0.661,0.6611,0.6642,0.6652,0.6655,0.6676,0.6684,0.67,0.6702,0.6725,0.673,0.6732,0.6751,0.6751,0.6772,0.6771,0.6804,0.68,0.68,0.6799,0.6821,0.6819,0.6894,0.6903,0.6838,0.6839,0.6839,0,0.6643,0.6664,0.6675,0.6687,0.6694,0.6713,0.6725,0.6722,0.6734,0.6747,0.6762,0.6781,0.6795,0.6826,0.6829,0.6845,0.6841,0.6866,0.6844,0.6844,0.6841,0.684,0.6841,0.6871,0.6871,0.6872,0.6872,0,0.6703,0.6702,0.6719,0.6736,0.675,0.6763,0.6775,0.6785,0.6784,0.6797,0.6817,0.6828,0.685,0.6868,0.6884,0.6889,0.688,0.688,0.6885,0.6887,0.6886,0.6886,0.6812,0.6878,0.6877,0.6877,0.6877,0.6876,0.6746,0.6763,0.6774,0.6793,0.6801,0.6813,0.6829,0.6832,0.6849,0.6867,0.6864,0.6886,0.6896,0.6916,0.6922,0.6939,0.693,0.6938,0.694,0.6942,0.6945,0.6884,0.6941,0.6941,0.6941,0.6941,0.6941,0,0.6804,0.681,0.6828,0.6845,0.686,0.6851,0.6864,0.6876,0.6896,0.6906,0.6921,0.6943,0.696,0.6964,0.6981,0.6993,0.6989,0.6997,0.6996,0.6997,0.6952,0.6945,0.7,0.7,0.7,0.7,0.7,0.7,0.6836,0.6864,0.6865,0.6897,0.6903,0.6925,0.6933,0.6943,0.6951,0.6977,0.6991,0.6994,0.7001,0.7018,0.7033,0.7034,0.704,0.705,0.7049,0.7006,0.7001,0.6995,0.6988,0.7051,0.7051,0.7093,0.7093,0.7093]},{"header":{"parameterUnit":"m.s-1","parameterCategory":1,"la1":30.2991,"la2":30.254,"lo1":-89.0895,"lo2":-89.0444,"dy":0.0017,"dx":0.0017,"nx":28,"ny":28,"refTime":"2024-05-23T09:00:00:Z","depth":0,"parameterNumber":3,"parameterNumberName":"V-component_of_WINDS"},"data":[0,0,0,0,0,0,0,0,0,0,0,0,0,0,0,0,0,0,0,0,0,0,0,0,0,0,0,0,0,0,0,0,0,0,0,0,0,0,0,0,0,0,0,0,0,0,0,0,0,0,0,0,0,0,0,0,0,0,4.1432,4.1432,0,4.1455,4.1455,4.1455,4.1389,4.1387,4.1385,4.1383,4.1405,4.1407,4.141,0,0,0,0,0,0,0,0,0,0,0,0,0,4.1327,4.1329,4.1432,4.1432,4.1432,4.1455,4.1455,4.1455,4.139,4.1387,4.1385,4.1382,4.1404,4.1407,4.141,0,0,0,0,0,0,0,0,0,0,0,0,0,4.1363,4.133,4.1432,4.1402,4.14,4.1455,4.1455,4.1456,4.139,4.1387,4.1384,4.1381,4.1403,4.1407,4.141,4.1494,0,0,4.1422,4.1423,0,0,0,0,0,0,0,0,4.1361,4.1367,4.1406,4.1404,4.1402,4.1416,4.1426,4.1468,4.1391,4.1394,4.1383,4.138,4.1411,4.1414,4.1425,4.1495,4.1496,4.1422,4.1424,4.1426,4.1427,0,0,0,0,0,0,0,4.1359,4.1366,4.1441,4.1407,4.1404,4.1387,4.1388,4.1434,4.1419,4.1393,4.1389,4.1392,4.1409,4.1421,4.1425,4.1496,4.1422,4.1425,4.1427,4.1429,4.1635,4.1638,0,0,0,0,0,0,4.1361,4.1364,4.144,4.1441,4.1374,4.1391,4.1393,4.1415,4.1418,4.1416,4.1395,4.1389,4.1417,4.1421,4.1425,4.1523,4.1426,4.1429,4.1431,4.1632,4.1636,4.1639,0,0,0,0,0,0,4.1359,4.1368,4.1439,4.1402,4.1409,4.1396,4.1421,4.1417,4.1429,4.142,4.1416,4.141,4.1414,4.142,4.1477,4.1523,4.1431,4.1434,4.1628,4.1633,4.1637,4.1719,0,0,0,0,0,0,4.1356,4.1368,4.14,4.1403,4.1412,4.1492,4.1424,4.1419,4.1436,4.1428,4.1433,4.1431,4.1412,4.1472,4.1481,4.1526,4.1437,4.1624,4.163,4.1636,4.1712,4.1726,4.1738,0,0,0,0,0,4.1352,4.1422,4.1402,4.1412,4.1452,4.1495,4.15,4.1477,4.144,4.1472,4.1465,4.1431,4.1516,4.1479,4.1488,4.1535,4.1621,4.1628,4.1635,4.1707,4.1724,4.1738,0,0,0,0,0,0,4.1425,4.1422,4.14,4.1473,4.1485,4.1484,4.1523,4.1496,4.1518,4.151,4.1481,4.1482,4.1545,4.1545,4.1503,4.1615,4.1562,4.1572,4.1613,4.1629,4.1641,4.164,4.144,0,0,0,0,0,4.145,4.1485,4.148,4.1545,4.1552,4.1537,4.1555,4.1536,4.1547,4.1551,4.1549,4.156,4.1589,4.1609,4.1635,4.1712,4.1711,4.1749,4.1762,4.1772,4.1781,4.182,4.1836,4.1663,4.1663,4.1663,0,0,4.1501,4.1503,4.1528,4.156,4.1567,4.1603,4.1542,4.1583,4.161,4.1557,4.1611,4.161,4.162,4.1687,4.1717,4.169,4.1828,4.1782,4.179,4.1793,4.1829,4.1846,4.186,4.1668,4.1667,4.1667,0,0,4.1612,4.1619,4.1673,4.1681,4.1692,4.1681,4.1694,4.1697,4.1695,4.1748,4.171,4.174,4.1791,4.1799,4.181,4.1924,4.1892,4.1933,4.2,4.2039,4.2053,4.2065,4.2104,4.2119,4.1942,4.1942,4.1942,0,4.1674,4.1729,4.1704,4.1748,4.1762,4.1717,4.1771,4.178,4.1799,4.1809,4.1779,4.1841,4.1845,4.1913,4.194,4.1951,4.1964,4.1932,4.2053,4.2065,4.2075,4.2113,4.2128,4.1947,4.1946,4.1946,4.1945,0,4.1803,4.1842,4.1884,4.1904,4.1923,4.1972,4.1953,4.1976,4.1955,4.1947,4.2002,4.2004,4.203,4.2044,4.2025,4.211,4.2092,4.2058,4.2004,4.2097,4.2132,4.2146,4.1953,4.1952,4.195,4.1949,0,0,4.1962,4.1967,4.1983,4.1991,4.2,4.2028,4.2074,4.2099,4.2119,4.2133,4.217,4.2214,4.2182,4.2194,4.2175,4.2209,4.2298,4.217,4.217,4.2193,4.239,4.2416,4.2433,4.2277,4.228,4.2282,4.2389,0,4.2072,4.2152,4.213,4.2209,4.2243,4.22,4.2239,4.2248,4.2242,4.2269,4.2261,4.2293,4.2248,4.2255,4.2287,4.228,4.2337,4.2272,4.231,4.2312,4.2309,4.2451,4.2479,4.258,4.2402,4.2405,4.2406,0,4.2211,4.2231,4.2313,4.2315,4.2329,4.2365,4.2386,4.2413,4.2421,4.2414,4.2428,4.2401,4.2445,4.239,4.245,4.2406,4.242,4.2419,4.2423,4.2425,4.2365,4.2457,4.2611,4.2627,4.2428,4.2426,4.2424,0,4.2317,4.2365,4.242,4.2428,4.2432,4.2458,4.2461,4.2466,4.2483,4.2501,4.2511,4.2533,4.2546,4.2563,4.2543,4.2506,4.2605,4.2549,4.26,4.26,4.2623,4.2622,4.2781,4.2633,4.2632,4.2632,4.2632,0,4.2442,4.2494,4.2468,4.2502,4.2559,4.2532,4.2589,4.2586,4.2591,4.2623,4.2587,4.2617,4.2589,4.2617,4.2601,4.2652,4.2658,4.2653,4.2648,4.2656,4.2657,4.2665,4.2657,4.2636,4.2635,4.2634,4.2634,0,4.2571,4.2556,4.2613,4.2612,4.2612,4.2654,4.2652,4.2683,4.2673,4.2714,4.2722,4.2707,4.2737,4.2719,4.275,4.2739,4.2806,4.2792,4.2803,4.2799,4.2851,4.2846,4.3021,4.3042,4.288,4.2882,4.2883,0,4.2652,4.2691,4.2693,4.2712,4.2717,4.2748,4.2765,4.274,4.2758,4.277,4.2799,4.2827,4.2847,4.2898,4.2889,4.2912,4.2898,4.2958,4.2901,4.2908,4.2898,4.2896,4.29,4.2969,4.2971,4.2973,4.2974,0,4.2796,4.2786,4.2811,4.2834,4.2855,4.2871,4.2884,4.2902,4.2876,4.2899,4.293,4.2946,4.2977,4.3005,4.3024,4.3025,4.2996,4.2992,4.3004,4.3013,4.3018,4.3015,4.2834,4.2988,4.2986,4.2985,4.2985,4.2984,4.2903,4.2935,4.2942,4.2971,4.2978,4.2991,4.3019,4.3013,4.3039,4.3063,4.3046,4.3083,4.3089,4.3112,4.3117,4.3144,4.312,4.3139,4.3143,4.3148,4.3155,4.3014,4.3148,4.3147,4.3147,4.3146,4.3146,0,4.3045,4.3046,4.3073,4.3093,4.3116,4.3086,4.3098,4.3119,4.3152,4.316,4.3181,4.3216,4.3242,4.3235,4.3258,4.3282,4.3268,4.3289,4.3286,4.3287,4.3176,4.3162,4.3299,4.3299,4.3299,4.3299,4.3299,4.3299,4.3121,4.3174,4.3165,4.322,4.3221,4.3257,4.3267,4.3278,4.3284,4.3325,4.3347,4.3342,4.3344,4.3367,4.3389,4.3386,4.3396,4.3422,4.3414,4.331,4.3295,4.3281,4.3268,4.3424,4.3424,4.3523,4.3524,4.3524]}]]